THORAD AGENA D DEB, 6767

Orbit data source: Space-Track

THORAD AGENA D DEB, 6767 is space debris in SSO originally from a launch on Wed, 08 Apr 1970 UTC launched from the Air Force Western Test Range (AFWTR). Debris objects in space refer to the collection of defunct objects orbiting the Earth. Examples of debris include non-operational satellites, rocket bodies, and fragments generated from explosions, collisions, or faulty payload assembly.

Loading next visibility...
Identifier
6767, 1970-025NF
Orbit
SSO
Country
Flag of USUS
Related business
Manufacturer
Unknown
Mission
Spacecraft
Bus & Motor
Unknown
Mass
Unknown
Launch date (UTC)
1970-04-08 (56 years ago)
Launch vehicle
Unknown
Launch site
Air Force Western Test Range (AFWTR)
Object type
Payload
Rocket body
Debris
Shape & HBR
Unknown shape, 0.1 m
Radar Cross Section
Small (<0.1 m²)

Expand to show TLE details & history
Last TLE update: 6 hours ago

TLE from 6 hours ago
0 THORAD AGENA D DEB
1  6767U 70025NF  25300.44017734  .00004081  00000-0  24330-2 0  9997
2  6767  99.0206 197.8986 0020550 119.2227 241.1000 14.07725663 84997
Epoch: 2025-10-27T10:33Z
TLE epoch observation values (Epoch: 2025-10-27T10:33:51.322Z)
Latitude
-0.00001°
Longitude
3.39277°
Altitude
877.273 km
Speed
7.41 km/s
True Right ascension
13h 11m 35s
True Declination
0° 00' 00"
Sunlit
Object was in daylight at epoch
Visualization orbit readout
Latitude
Unknown
Longitude
Unknown
Altitude
Unknown
Speed
Unknown
Apparent Right ascension
Unknown
Apparent Declination
Unknown
Sunlit
N/A
Visualization observer readout
Local Sidereal Time
12:21:57
Azimuth
Unknown
Elevation
Unknown
Doppler factor
Unknown
Orbital elements
Apogee altitude
879.238 km
Perigee altitude
849.472 km
Semi-major axis
7,242.492 km
Eccentricity
0.00206
Inclination
99.0206°
RAAN
197.8986°
Arg. of periapsis
119.2227°
True anomaly
240.8941°
Mean anomaly
241.1°
Eccentric anomaly
240.99702°
Mean motion
3.52137 °/min
Orbital period
102.23 mins
BSTAR
0.002433
Loading maneuver chart data...
Computing Atmospheric mass density...

Documentation

Showing up to 5 results
|